• Em Portugal
  • Lista de países
  • Para 7 dias
  • Temperatura da água
  • Mapas de satélite
  • Mapa do tempo
  • Widgets de tempo
  • user-avatar
    Iniciar Sessão

    Previsão horária em Vily

    Hoje, 21 Outubro, Domingo

    Tempo Temperatura Precipitação Vento Pressão Humidade
    00:00 +5°C° 0 mm 1 m/s 753 mmHg 80%
    01:00 +5°C° 0 mm 1 m/s 754 mmHg 81%
    02:00 +4°C° 0 mm 1 m/s 754 mmHg 83%
    03:00 +4°C° 0 mm 1 m/s 754 mmHg 84%
    04:00 +4°C° 0 mm 1 m/s 754 mmHg 85%
    05:00 +4°C° 0 mm 1 m/s 754 mmHg 87%
    06:00 +4°C° 0 mm 1 m/s 754 mmHg 86%
    07:00 +4°C° 0 mm 1 m/s 755 mmHg 85%
    08:00 +6°C° 0 mm 1 m/s 755 mmHg 78%
    09:00 +7°C° 0 mm 1 m/s 756 mmHg 72%
    10:00 +8°C° 0 mm 1 m/s 756 mmHg 67%
    11:00 +10°C° 0 mm 1 m/s 756 mmHg 61%
    12:00 +10°C° 0 mm 1 m/s 756 mmHg 59%
    13:00 +10°C° 0 mm 0 m/s 756 mmHg 56%
    14:00 +10°C° 0 mm 0 m/s 756 mmHg 54%
    15:00 +9°C° 0 mm 0 m/s 756 mmHg 59%
    16:00 +8°C° 0 mm 0 m/s 756 mmHg 64%
    17:00 +6°C° 0 mm 0 m/s 756 mmHg 70%
    18:00 +6°C° 0 mm 0 m/s 756 mmHg 72%
    19:00 +5°C° 0 mm 0 m/s 756 mmHg 75%
    20:00 +5°C° 0 mm 0 m/s 756 mmHg 77%
    21:00 +6°C° 0 mm 1 m/s 756 mmHg 79%
    22:00 +5°C° 0 mm 1 m/s 756 mmHg 81%
    23:00 +5°C° 0 mm 1 m/s 756 mmHg 82%

    Amanhã, 22 Outubro, Segunda-feira

    Tempo Temperatura Precipitação Vento Pressão Humidade
    00:00 +4°C° 0 mm 2 m/s 756 mmHg 84%
    01:00 +4°C° 0 mm 2 m/s 756 mmHg 86%
    02:00 +3°C° 0 mm 2 m/s 755 mmHg 87%
    03:00 +3°C° 0 mm 2 m/s 755 mmHg 89%
    04:00 +3°C° 0 mm 2 m/s 755 mmHg 90%
    05:00 +3°C° 0 mm 2 m/s 754 mmHg 91%
    06:00 +3°C° 0 mm 2 m/s 754 mmHg 90%
    07:00 +2°C° 0 mm 3 m/s 754 mmHg 89%
    08:00 +3°C° 0 mm 3 m/s 754 mmHg 89%
    09:00 +4°C° 0 mm 3 m/s 753 mmHg 82%
    10:00 +6°C° 0 mm 4 m/s 753 mmHg 75%
    11:00 +8°C° 0 mm 4 m/s 753 mmHg 69%
    12:00 +8°C° 0 mm 4 m/s 752 mmHg 67%
    13:00 +9°C° 0 mm 5 m/s 751 mmHg 65%
    14:00 +10°C° 0 mm 5 m/s 751 mmHg 63%
    15:00 +10°C° 0 mm 4 m/s 750 mmHg 67%
    16:00 +8°C° 0 mm 4 m/s 750 mmHg 71%
    17:00 +7°C° 0 mm 4 m/s 749 mmHg 76%
    18:00 +7°C° 0.1 mm 4 m/s 749 mmHg 77%
    19:00 +7°C° 0.1 mm 4 m/s 748 mmHg 78%
    20:00 +7°C° 0.1 mm 4 m/s 748 mmHg 80%
    21:00 +7°C° 0.5 mm 4 m/s 748 mmHg 83%
    22:00 +7°C° 0.5 mm 4 m/s 747 mmHg 86%
    23:00 +7°C° 0.5 mm 4 m/s 747 mmHg 89%

    Depois de amanhã, 23 Outubro, Terça-feira

    Tempo Temperatura Precipitação Vento Pressão Humidade
    00:00 +6°C° 0.4 mm 4 m/s 747 mmHg 89%
    01:00 +6°C° 0.4 mm 4 m/s 747 mmHg 90%
    02:00 +5°C° 0.4 mm 3 m/s 747 mmHg 90%
    03:00 +4°C° 0 mm 3 m/s 746 mmHg 91%
    04:00 +3°C° 0 mm 3 m/s 746 mmHg 92%
    05:00 +2°C° 0 mm 3 m/s 746 mmHg 93%
    06:00 +2°C° 0 mm 3 m/s 746 mmHg 92%
    07:00 +3°C° 0 mm 2 m/s 745 mmHg 91%
    08:00 +3°C° 0 mm 2 m/s 745 mmHg 90%
    09:00 +3°C° 0 mm 3 m/s 745 mmHg 83%
    10:00 +4°C° 0 mm 3 m/s 744 mmHg 77%
    11:00 +7°C° 0 mm 3 m/s 744 mmHg 70%
    12:00 +7°C° 0 mm 3 m/s 743 mmHg 67%
    13:00 +6°C° 0 mm 4 m/s 742 mmHg 63%
    14:00 +7°C° 0 mm 4 m/s 741 mmHg 60%
    15:00 +6°C° 0 mm 4 m/s 740 mmHg 65%
    16:00 +5°C° 0 mm 4 m/s 738 mmHg 70%
    17:00 +4°C° 0 mm 4 m/s 737 mmHg 75%
    18:00 +3°C° 0 mm 5 m/s 736 mmHg 76%
    19:00 +3°C° 0 mm 6 m/s 734 mmHg 78%
    20:00 +3°C° 0 mm 6 m/s 733 mmHg 79%
    21:00 +3°C° 0.3 mm 7 m/s 731 mmHg 79%
    22:00 +3°C° 0.3 mm 7 m/s 730 mmHg 80%
    23:00 +3°C° 0.3 mm 7 m/s 728 mmHg 80%

    24 Outubro, Quarta-feira

    Tempo Temperatura Precipitação Vento Pressão Humidade
    00:00 +3°C° 0.8 mm 7 m/s 727 mmHg 81%
    01:00 +3°C° 0.8 mm 7 m/s 725 mmHg 83%
    02:00 +3°C° 0.8 mm 7 m/s 724 mmHg 84%
    03:00 +4°C° 0.7 mm 6 m/s 723 mmHg 86%
    04:00 +5°C° 0.7 mm 5 m/s 723 mmHg 88%
    05:00 +5°C° 0.7 mm 5 m/s 722 mmHg 90%
    06:00 +5°C° 0.4 mm 4 m/s 722 mmHg 90%
    07:00 +5°C° 0.4 mm 4 m/s 722 mmHg 90%
    08:00 +5°C° 0.4 mm 4 m/s 723 mmHg 89%
    09:00 +5°C° 0.2 mm 4 m/s 723 mmHg 87%
    10:00 +5°C° 0.2 mm 4 m/s 723 mmHg 85%
    11:00 +5°C° 0.2 mm 5 m/s 724 mmHg 82%
    12:00 +5°C° 0.1 mm 5 m/s 724 mmHg 82%
    13:00 +5°C° 0.1 mm 5 m/s 724 mmHg 81%
    14:00 +5°C° 0.1 mm 5 m/s 725 mmHg 81%
    15:00 +5°C° 0.1 mm 5 m/s 725 mmHg 82%
    16:00 +5°C° 0.1 mm 5 m/s 726 mmHg 83%
    17:00 +5°C° 0.1 mm 5 m/s 726 mmHg 85%
    18:00 +5°C° 0.1 mm 5 m/s 726 mmHg 85%
    19:00 +5°C° 0.1 mm 5 m/s 727 mmHg 85%
    20:00 +4°C° 0.1 mm 6 m/s 727 mmHg 85%
    21:00 +3°C° 0.1 mm 6 m/s 727 mmHg 84%
    22:00 +3°C° 0.1 mm 6 m/s 728 mmHg 84%
    23:00 +3°C° 0.1 mm 7 m/s 728 mmHg 84%

    25 Outubro, Quinta-feira

    Tempo Temperatura Precipitação Vento Pressão Humidade
    00:00 +3°C° 0.2 mm 7 m/s 728 mmHg 83%
    01:00 +3°C° 0.2 mm 7 m/s 729 mmHg 83%
    02:00 +3°C° 0.2 mm 7 m/s 729 mmHg 82%
    03:00 +2°C° 0.1 mm 7 m/s 729 mmHg 82%
    04:00 +2°C° 0.1 mm 7 m/s 730 mmHg 82%
    05:00 +2°C° 0.1 mm 7 m/s 730 mmHg 82%
    06:00 +2°C° 0.1 mm 7 m/s 730 mmHg 81%
    07:00 +2°C° 0.1 mm 7 m/s 730 mmHg 81%
    08:00 +2°C° 0.1 mm 7 m/s 731 mmHg 80%
    09:00 +2°C° 0 mm 7 m/s 731 mmHg 78%
    10:00 +3°C° 0 mm 7 m/s 731 mmHg 75%
    11:00 +3°C° 0 mm 7 m/s 731 mmHg 73%
    12:00 +3°C° 0 mm 7 m/s 731 mmHg 70%
    13:00 +4°C° 0 mm 7 m/s 731 mmHg 67%
    14:00 +4°C° 0 mm 7 m/s 731 mmHg 65%
    15:00 +3°C° 0 mm 6 m/s 731 mmHg 68%
    16:00 +3°C° 0 mm 5 m/s 732 mmHg 72%
    17:00 +3°C° 0 mm 4 m/s 732 mmHg 75%
    18:00 +3°C° 0 mm 4 m/s 732 mmHg 77%
    19:00 +3°C° 0 mm 4 m/s 732 mmHg 79%
    20:00 +1°C° 0 mm 4 m/s 732 mmHg 81%
    21:00 +1°C° 0 mm 4 m/s 732 mmHg 83%
    22:00 +1°C° 0 mm 4 m/s 733 mmHg 85%
    23:00 0°C° 0 mm 4 m/s 733 mmHg 87%

    26 Outubro, Sexta-feira

    Tempo Temperatura Precipitação Vento Pressão Humidade
    00:00 0°C° 0 mm 4 m/s 733 mmHg 88%
    01:00 0°C° 0 mm 4 m/s 733 mmHg 89%
    02:00 0°C° 0 mm 3 m/s 734 mmHg 91%
    03:00 0°C° 0 mm 3 m/s 734 mmHg 92%
    04:00 0°C° 0 mm 3 m/s 734 mmHg 93%
    05:00 0°C° 0 mm 3 m/s 734 mmHg 94%
    06:00 +1°C° 0 mm 3 m/s 735 mmHg 93%
    07:00 +2°C° 0 mm 3 m/s 735 mmHg 92%
    08:00 +2°C° 0 mm 3 m/s 736 mmHg 91%
    09:00 +3°C° 0.1 mm 4 m/s 736 mmHg 87%
    10:00 +3°C° 0.1 mm 4 m/s 737 mmHg 83%
    11:00 +4°C° 0.1 mm 4 m/s 737 mmHg 79%
    12:00 +4°C° 0.1 mm 4 m/s 737 mmHg 76%
    13:00 +5°C° 0.1 mm 4 m/s 738 mmHg 72%
    14:00 +5°C° 0.1 mm 5 m/s 738 mmHg 69%
    15:00 +5°C° 0 mm 4 m/s 738 mmHg 73%
    16:00 +4°C° 0 mm 3 m/s 739 mmHg 77%
    17:00 +3°C° 0 mm 3 m/s 739 mmHg 82%
    18:00 +3°C° 0 mm 2 m/s 739 mmHg 84%
    19:00 +3°C° 0 mm 2 m/s 739 mmHg 86%
    20:00 +2°C° 0 mm 2 m/s 740 mmHg 88%
    21:00 +2°C° 0 mm 3 m/s 740 mmHg 87%
    22:00 +2°C° 0 mm 3 m/s 739 mmHg 86%
    23:00 +1°C° 0 mm 4 m/s 739 mmHg 85%
    Mostrar mais